Flag for Argentina Weather past 2 weeks in Jujuy, Jujuy, Argentina

Now
63 °F

Clear.


Feels Like: 63 °F
Forecast: 44 / 72 °F
Wind: 2 mph from Northwest

Location: Jujuy Aerodrome

Current Time: Sep 17, 2014 at 12:52:28 AM

Latest Report: Sep 17, 2014 at 12:00 AM


Visibility: 10 mi

Pressure: 29.98 "Hg

Humidity: 56%

Dew point: 46 °F

Location of JujuyLocation

Historic Weather in Jujuy — Graph

°F

Jujuy temperature yesterday

Maximum temperature yesterday: 79 °F (at 3:00 PM)
Minimum temperature yesterday: 48 °F (at 4:00 AM)
Average temperature yesterday: 65 °F

Past Weeks' High & Low Weather Summary

 TemperatureHumidityPressure
High97 °F (Sep 9, 3:00 PM)94% (Sep 4, 8:00 AM)30.33 "Hg (Sep 4, 8:00 AM)
Low43 °F (Sep 12, 7:00 AM)18% (Sep 9, 3:00 PM)29.53 "Hg (Sep 9, 4:00 PM)
Average68 °F53%29.94 "Hg
* Reported Sep 1 11:00 PM — Sep 16 11:00 PM, Jujuy, Weather by CustomWeather, © 2014

Note: Actual official high and low records may vary slightly from our data, if they occured in-between our weather recording intervals... More about our weather records

Advertising

Jujuy weather history for previous 24 hours

 ConditionsComfort  
Time TempWeatherWind HumidityBarometerVisibility
11:00 PM
Sep 16
66 °FClear.3 mph46%29.98 "Hg10 mi
10:00 PM68 °FClear.3 mph46%29.98 "Hg10 mi
9:00 PM70 °FClear.3 mph40%29.95 "Hg10 mi
8:00 PM70 °FClear.2 mph40%29.92 "Hg10 mi
7:00 PM75 °FClear.8 mph34%29.89 "Hg10 mi
6:00 PM77 °FSunny.12 mph34%29.86 "Hg10 mi
5:00 PM77 °FSunny.15 mph32%29.86 "Hg10 mi
4:00 PM79 °FSunny.16 mph32%29.86 "Hg10 mi
3:00 PM79 °FSunny.14 mph32%29.89 "Hg10 mi
2:00 PM77 °FSunny.12 mph32%29.95 "Hg10 mi
1:00 PM75 °FPassing clouds.12 mph34%29.98 "HgN/A
12:00 PM72 °FPassing clouds.10 mph41%30.04 "HgN/A
11:00 AM72 °FSunny.5 mph41%30.07 "Hg10 mi
10:00 AM66 °FSunny.5 mph49%30.09 "Hg10 mi
9:00 AM63 °FSunny.No wind56%30.09 "Hg10 mi
8:00 AM54 °FSunny.3 mph67%30.07 "Hg10 mi
7:00 AM52 °FPassing clouds.3 mph72%30.07 "HgN/A
6:00 AM50 °FClear.No wind76%30.07 "Hg10 mi
5:00 AM54 °FClear.5 mph72%30.07 "Hg10 mi
4:00 AM48 °FClear.5 mph82%30.07 "Hg10 mi
3:00 AM50 °FPassing clouds.3 mph76%30.09 "HgN/A
2:00 AM57 °FPassing clouds.3 mph67%30.09 "HgN/A
1:00 AM57 °FPassing clouds.3 mph63%30.12 "HgN/A
12:00 AM59 °FPassing clouds.6 mph59%30.15 "HgN/A
Weather by CustomWeather, © 2014

See weather overviewHow to use our weather pages